Location: Eitze
(52.9840°N, 9.6894°E)
Time: 00:38:07
(UTC+00:00)

Meteor 1-18 Rocket - Pass Details

Date: 19 May 2025
Orbit: 836 x 907 km, 81.2° (Epoch: 15 June)

Event Time Altitude Azimuth Distance (km) Brightness Sun altitude
Exits shadow 23:14:36 27° 190° (S) 1,634 5.1 -17.0°
Maximum altitude 23:17:56 88° 102° (ESE) 900 4.3 -17.0°
Drops below altitude 10° 23:23:51 10° 14° (NNE) 2,591 8.0 -17.0°
Sets 23:26:21 0° 14° (NNE) 3,542 9.0 -17.0°
